Hourly Data Report for October 24, 2013

All times are specified in Local Standard Time (LST). Add 1 hour to adjust for Daylight Saving Time where and when it is observed.

PENTICTON A
BRITISH COLUMBIA

49°27'45.000" N
119°36'08.000" W
344.40 m
1126146
71889
YYF

Related Data

No related data is available for this station

Download Data

Hourly Data (October 2013)
Hourly Data Report for October 24, 2013
Temp Definition
°C
Dew Point Temp Definition
°C
Rel Hum Definition
%
Wind Dir Definition
10's deg

Wind Spd Definition
km/h
Visibility Definition
km
Stn Press Definition
kPa
Hmdx Definition


Wind Chill Definition


Weather Definition


TIME
00:00 Legend Double Dagger 7.1 5.4 89 34 7 16.1 98.10     LegendNANA
01:00 Legend Double Dagger 6.6 5.1 90 1 5 16.1 98.09     Cloudy
02:00 Legend Double Dagger 6.0 4.2 88 1 7 16.1 98.07     LegendNANA
03:00 Legend Double Dagger 6.0 4.2 88 36 10 24.1 98.07     LegendNANA
04:00 Legend Double Dagger 6.1 4.1 87 1 8 24.1 98.07     Cloudy
05:00 Legend Double Dagger 5.9 4.1 88 36 8 19.3 98.08     LegendNANA
06:00 Legend Double Dagger 6.3 4.6 89 36 4 19.3 98.06     LegendNANA
07:00 Legend Double Dagger 5.7 3.7 87 3 4 19.3 98.07     Cloudy
08:00 Legend Double Dagger 5.8 3.7 86 34 5 16.1 98.12     LegendNANA
09:00 Legend Double Dagger 6.8 4.5 85 4 5 16.1 98.13     LegendNANA
10:00 Legend Double Dagger 7.3 5.1 86 6 3 19.3 98.11     Cloudy
11:00 Legend Double Dagger 7.9 5.2 83 17 5 19.3 98.08     LegendNANA
12:00 Legend Double Dagger 8.0 5.5 84 23 3 19.3 98.03     LegendNANA
13:00 Legend Double Dagger 8.7 5.8 82 29 4 24.1 97.96     Cloudy
14:00 Legend Double Dagger 9.6 5.4 75 2 3 24.1 97.91     LegendNANA
15:00 Legend Double Dagger 9.4 6.0 79 35 11 24.1 97.91     LegendNANA
16:00 Legend Double Dagger 7.7 5.7 87 34 10 24.1 97.90     Mostly Cloudy
17:00 Legend Double Dagger 5.9 4.7 92 34 8 24.1 97.92     LegendNANA
18:00 Legend Double Dagger 7.7 6.2 90 31 8 16.1 97.96     LegendNANA
19:00 Legend Double Dagger 7.8 6.3 90 33 5 16.1 97.97     Cloudy
20:00 Legend Double Dagger 7.3 5.8 90 3 5 16.1 98.03     LegendNANA
21:00 Legend Double Dagger 7.4 6.0 91 32 8 16.1 98.09     LegendNANA
22:00 Legend Double Dagger 6.8 5.3 90 35 6 16.1 98.10     Cloudy
23:00 Legend Double Dagger 7.0 5.2 88 35 10 16.1 98.17     LegendNANA

Notes on Data Quality.

Legend

  • E = Estimated
  • M = Missing
  • NA = Not Available
  • ‡ = Partner data that is not subject to review by the National Climate Archives
Date modified: